| time (UTC) | temp F | wind direction | speed knots | gust knots | rain 1hr in | rain 24hr in | rain mn in | humidity % | barometer mb |
| 20260504231826 | 75 | 118 | 2.6 | 7.8 | 0.00 | 0.00 | 0.00 | 42 | |
| 20260504231515 | 74 | 107 | 0.9 | 4.3 | 0.00 | 0.00 | 0.00 | 42 | 1084.4 |
| 20260504231311 | 75 | 107 | 0.9 | 4.3 | 0.00 | 0.00 | 0.00 | 42 | |
| 20260504230840 | 75 | 105 | 0.9 | 7.0 | 0.00 | 0.00 | 0.00 | 42 | |
| 20260504230337 | 75 | 98 | 0.9 | 7.0 | 0.00 | 0.00 | 0.00 | 41 | |
| 20260504230018 | 75 | 105 | 0.0 | 6.1 | 0.00 | 0.00 | 0.00 | 42 | 1084.4 |
| 20260504225822 | 75 | 106 | 0.9 | 6.1 | 0.00 | 0.00 | 0.00 | 42 | |
| 20260504225324 | 76 | 105 | 0.9 | 5.2 | 0.00 | 0.00 | 0.00 | 42 | 951.2 |
| 20260504224835 | 76 | 105 | 1.7 | 7.0 | 0.00 | 0.00 | 0.00 | 41 | 1037.0 |
| 20260504224557 | 75 | 106 | 0.9 | 10.4 | 0.00 | 0.00 | 0.00 | 41 | 1084.4 |
| 20260504224404 | 76 | 105 | 2.6 | 10.4 | 0.00 | 0.00 | 0.00 | 40 | 534.8 |
| 20260504223818 | 76 | 111 | 3.5 | 10.4 | 0.00 | 0.00 | 0.00 | 41 | 87.0 |
| 20260504223331 | 76 | 89 | 4.3 | 10.4 | 0.00 | 0.00 | 0.00 | 39 | 708.3 |
| 20260504223058 | 76 | 118 | 2.6 | 7.8 | 0.00 | 0.00 | 0.00 | 40 | 1084.4 |
| 20260504222820 | 76 | 113 | 1.7 | 9.6 | 0.00 | 0.00 | 0.00 | 40 | 755.2 |
| 20260504222329 | 76 | 104 | 1.7 | 11.3 | 0.00 | 0.00 | 0.00 | 41 | 116.8 |
| 20260504221814 | 77 | 128 | 2.6 | 11.3 | 0.00 | 0.00 | 0.00 | 39 | |
| 20260504221549 | 76 | 146 | 3.5 | 11.3 | 0.00 | 0.00 | 0.00 | 38 | 1084.4 |
| 20260504221316 | 77 | 148 | 4.3 | 7.8 | 0.00 | 0.00 | 0.00 | 38 | 455.8 |
| 20260504220830 | 77 | 130 | 3.5 | 7.8 | 0.00 | 0.00 | 0.00 | 39 | |
| 20260504220317 | 77 | 127 | 3.5 | 8.7 | 0.00 | 0.00 | 0.00 | 37 | |
| 20260504220046 | 77 | 146 | 2.6 | 8.7 | 0.00 | 0.00 | 0.00 | 37 | 1084.4 |
| 20260504215837 | 77 | 153 | 2.6 | 8.7 | 0.00 | 0.00 | 0.00 | 38 | 785.0 |
| 20260504215403 | 77 | 78 | 3.5 | 8.7 | 0.00 | 0.00 | 0.00 | 37 | |
| 20260504214848 | 78 | 110 | 1.7 | 9.6 | 0.00 | 0.00 | 0.00 | 38 | -108.1 |
| 20260504214614 | 77 | 117 | 2.6 | 9.6 | 0.00 | 0.00 | 0.00 | 38 | 1084.4 |
| 20260504214312 | 78 | 86 | 4.3 | 9.6 | 0.00 | 0.00 | 0.00 | 37 | |
| 20260504213841 | 78 | 102 | 1.7 | 9.6 | 0.00 | 0.00 | 0.00 | 40 | |
| 20260504213352 | 78 | 105 | 2.6 | 9.6 | 0.00 | 0.00 | 0.00 | 38 | |
| 20260504213034 | 78 | 90 | 1.7 | 6.1 | 0.00 | 0.00 | 0.00 | 39 | 1084.4 |
| 20260504212819 | 78 | 99 | 0.9 | 6.1 | 0.00 | 0.00 | 0.00 | 39 | |
| 20260504212316 | 78 | 106 | 0.9 | 8.7 | 0.00 | 0.00 | 0.00 | 39 | |
| 20260504211819 | 78 | 128 | 3.5 | 8.7 | 0.00 | 0.00 | 0.00 | 38 | 1091.1 |
| 20260504211527 | 77 | 121 | 3.5 | 8.7 | 0.00 | 0.00 | 0.00 | 37 | 1084.4 |
| 20260504211325 | 78 | 120 | 3.5 | 9.6 | 0.00 | 0.00 | 0.00 | 38 | |
| 20260504210827 | 78 | 76 | 4.3 | 9.6 | 0.00 | 0.00 | 0.00 | 38 | |
| 20260504210337 | 78 | 98 | 4.3 | 8.7 | 0.00 | 0.00 | 0.00 | 38 | 423.3 |
| 20260504210002 | 78 | 90 | 0.0 | 7.0 | 0.00 | 0.00 | 0.00 | 39 | 1084.4 |
| 20260504205831 | 78 | 91 | 3.5 | 7.8 | 0.00 | 0.00 | 0.00 | 40 | 889.4 |
| 20260504205311 | 78 | 126 | 2.6 | 7.8 | 0.00 | 0.00 | 0.00 | 39 | |
| 20260504204838 | 78 | 153 | 2.6 | 11.3 | 0.00 | 0.00 | 0.00 | 40 | |
| 20260504204606 | 77 | 79 | 1.7 | 11.3 | 0.00 | 0.00 | 0.00 | 41 | 1084.4 |
| 20260504204318 | 78 | 74 | 4.3 | 11.3 | 0.00 | 0.00 | 0.00 | 39 | 564.9 |
| 20260504203844 | 78 | 71 | 4.3 | 8.7 | 0.00 | 0.00 | 0.00 | 38 | 607.7 |
| 20260504203329 | 78 | 78 | 2.6 | 9.6 | 0.00 | 0.00 | 0.00 | 39 | 700.6 |
| 20260504203035 | 78 | 71 | 4.3 | 12.2 | 0.00 | 0.00 | 0.00 | 40 | 1084.4 |
| 20260504202821 | 78 | 85 | 5.2 | 12.2 | 0.00 | 0.00 | 0.00 | 39 | 1061.0 |
| 20260504202346 | 79 | 90 | 6.1 | 12.2 | 0.00 | 0.00 | 0.00 | 38 | |
| 20260504201830 | 79 | 108 | 1.7 | 8.7 | 0.00 | 0.00 | 0.00 | 39 | |
| 20260504201520 | 78 | 94 | 2.6 | 7.8 | 0.00 | 0.00 | 0.00 | 41 | 1084.4 |
| 20260504201316 | 79 | 96 | 1.7 | 8.7 | 0.00 | 0.00 | 0.00 | 39 | |
| 20260504200822 | 79 | 117 | 3.5 | 8.7 | 0.00 | 0.00 | 0.00 | 38 | |
| 20260504200329 | 79 | 124 | 2.6 | 7.0 | 0.00 | 0.00 | 0.00 | 40 | 194.3 |
| 20260504200111 | 78 | 140 | 0.9 | 7.8 | 0.00 | 0.00 | 0.00 | 43 | 1084.4 |
| 20260504195824 | 79 | 75 | 0.9 | 7.8 | 0.00 | 0.00 | 0.00 | 39 | |
| 20260504195315 | 78 | 74 | 2.6 | 8.7 | 0.00 | 0.00 | 0.00 | 40 | 1045.3 |
| 20260504194838 | 78 | 74 | 2.6 | 8.7 | 0.00 | 0.00 | 0.00 | 40 | |
| 20260504194614 | 78 | 72 | 1.7 | 8.7 | 0.00 | 0.00 | 0.00 | 42 | 1084.4 |
| 20260504194331 | 78 | 69 | 1.7 | 7.8 | 0.00 | 0.00 | 0.00 | 41 | 763.0 |
| 20260504193814 | 78 | 99 | 3.5 | 7.8 | 0.00 | 0.00 | 0.00 | 40 | |
| 20260504193324 | 79 | 95 | 0.9 | 7.0 | 0.00 | 0.00 | 0.00 | 40 | 34.1 |
| 20260504193052 | 78 | 95 | 0.9 | 9.6 | 0.00 | 0.00 | 0.00 | 42 | 902.2 |
| 20260504192849 | 79 | 95 | 0.9 | 9.6 | 0.00 | 0.00 | 0.00 | 39 | |
| 20260504192336 | 79 | 115 | 4.3 | 9.6 | 0.00 | 0.00 | 0.00 | 40 | |
| 20260504191827 | 79 | 115 | 2.6 | 9.6 | 0.00 | 0.00 | 0.00 | 39 | 1006.3 |
| 20260504191523 | 78 | 117 | 1.7 | 8.7 | 0.00 | 0.00 | 0.00 | 41 | 902.2 |
| 20260504191333 | 79 | 110 | 3.5 | 8.7 | 0.00 | 0.00 | 0.00 | 41 | 265.6 |
| 20260504190814 | 78 | 165 | 0.0 | 7.8 | 0.00 | 0.00 | 0.00 | 45 | |
| 20260504190319 | 78 | 152 | 1.7 | 5.2 | 0.00 | 0.00 | 0.00 | 39 | |
| 20260504190056 | 77 | 159 | 0.9 | 5.2 | 0.00 | 0.00 | 0.00 | 42 | 902.2 |
| 20260504185827 | 77 | 162 | 0.0 | 4.3 | 0.00 | 0.00 | 0.00 | 41 | |
| 20260504185316 | 77 | 167 | 2.6 | 7.0 | 0.00 | 0.00 | 0.00 | 39 | |
| 20260504184821 | 77 | 168 | 4.3 | 8.7 | 0.00 | 0.00 | 0.00 | 43 | 983.5 |
| 20260504184533 | 77 | 165 | 5.2 | 8.7 | 0.00 | 0.00 | 0.00 | 41 | 902.2 |
| 20260504184345 | 77 | 163 | 2.6 | 7.8 | 0.00 | 0.00 | 0.00 | 40 | |
| 20260504183812 | 77 | 163 | 0.9 | 7.8 | 0.00 | 0.00 | 0.00 | 41 | |
| 20260504183339 | 76 | 164 | 3.5 | 7.8 | 0.00 | 0.00 | 0.00 | 39 | 286.4 |
| 20260504183002 | 76 | 158 | 2.6 | 8.7 | 0.00 | 0.00 | 0.00 | 41 | 902.2 |
| 20260504182832 | 77 | 129 | 3.5 | 8.7 | 0.00 | 0.00 | 0.00 | 40 | 851.5 |
| 20260504182330 | 76 | 161 | 1.7 | 6.1 | 0.00 | 0.00 | 0.00 | 41 | |
| 20260504181814 | 76 | 148 | 0.0 | 4.3 | 0.00 | 0.00 | 0.00 | 41 | 946.4 |
| 20260504181551 | 75 | 150 | 0.0 | 7.8 | 0.00 | 0.00 | 0.00 | 44 | 902.2 |
| 20260504181342 | 76 | 150 | 3.5 | 8.7 | 0.00 | 0.00 | 0.00 | 42 | |
| 20260504180822 | 76 | 159 | 5.2 | 8.7 | 0.00 | 0.00 | 0.00 | 44 | 630.4 |
| 20260504180327 | 75 | 190 | 0.0 | 1.7 | 0.00 | 0.00 | 0.00 | 44 | |
| 20260504180035 | 75 | 190 | 0.0 | 4.3 | 0.00 | 0.00 | 0.00 | 43 | 902.2 |
| 20260504175833 | 75 | 190 | 0.0 | 5.2 | 0.00 | 0.00 | 0.00 | 44 | |
| 20260504175344 | 75 | 190 | 0.9 | 6.1 | 0.00 | 0.00 | 0.00 | 45 | 735.4 |
| 20260504174816 | 75 | 194 | 0.0 | 5.2 | 0.00 | 0.00 | 0.00 | 44 | |
| 20260504174530 | 75 | 194 | 0.9 | 5.2 | 0.00 | 0.00 | 0.00 | 43 | 902.2 |
| 20260504174321 | 75 | 194 | 1.7 | 5.2 | 0.00 | 0.00 | 0.00 | 43 | 732.3 |
| 20260504173838 | 75 | 187 | 0.9 | 3.5 | 0.00 | 0.00 | 0.00 | 42 | |
| 20260504173322 | 74 | 187 | 0.0 | 5.2 | 0.00 | 0.00 | 0.00 | 44 | |
| 20260504173056 | 73 | 186 | 0.0 | 6.1 | 0.00 | 0.00 | 0.00 | 45 | 902.2 |
| 20260504172843 | 74 | 186 | 0.0 | 6.1 | 0.00 | 0.00 | 0.00 | 42 | |
| 20260504172321 | 74 | 188 | 2.6 | 6.1 | 0.00 | 0.00 | 0.00 | 43 | 330.1 |
| 20260504171830 | 74 | 126 | 0.0 | 7.8 | 0.00 | 0.00 | 0.00 | 45 | |
| 20260504171534 | 73 | 125 | 0.0 | 7.8 | 0.00 | 0.00 | 0.00 | 42 | 902.2 |
| 20260504171337 | 74 | 125 | 1.7 | 7.8 | 0.00 | 0.00 | 0.00 | 43 | 376.4 |
| 20260504170822 | 74 | 118 | 1.7 | 6.1 | 0.00 | 0.00 | 0.00 | 44 | |
| 20260504170336 | 74 | 136 | 2.6 | 5.2 | 0.00 | 0.00 | 0.00 | 42 | |
| 20260504170104 | 73 | 136 | 1.7 | 5.2 | 0.00 | 0.00 | 0.00 | 44 | 902.2 |
| 20260504160327 | 72 | 240 | 1.7 | 4.3 | 0.00 | 0.00 | 0.00 | 45 | |
| 20260504150815 | 69 | 185 | 2.6 | 5.2 | 0.00 | 0.00 | 0.00 | 45 | |
| 20260504150317 | 69 | 171 | 2.6 | 6.1 | 0.00 | 0.00 | 0.00 | 45 | 843.4 |
| 20260504141321 | 64 | 156 | 2.6 | 5.2 | 0.00 | 0.00 | 0.00 | 59 | 810.4 |
| 20260504140828 | 64 | 152 | 3.5 | 4.3 | 0.00 | 0.00 | 0.00 | 60 | |
| 20260504140351 | 63 | 119 | 0.9 | 4.3 | 0.00 | 0.00 | 0.00 | 62 | 203.5 |
| 20260504130338 | 54 | 35 | 0.0 | 0.0 | 0.00 | 0.00 | 0.00 | 76 | 571.2 |
| 20260504130104 | 53 | 125 | 0.0 | 0.0 | 0.00 | 0.00 | 0.00 | 78 | 902.2 |
| 20260504120119 | 42 | 125 | 0.0 | 0.0 | 0.00 | 0.00 | 0.00 | 95 | 902.2 |
| 20260504110311 | 38 | 124 | 0.0 | 0.0 | 0.00 | 0.00 | 0.00 | 93 | 971.8 |
| 20260504100343 | 38 | 123 | 0.0 | 0.0 | 0.00 | 0.00 | 0.00 | 93 | |
| 20260504081827 | 41 | 124 | 0.0 | 0.0 | 0.00 | 0.00 | 0.00 | 93 | 652.9 |
| 20260504081512 | 40 | 124 | 0.0 | 0.0 | 0.00 | 0.00 | 0.00 | 93 | 1016.8 |
| 20260504081315 | 41 | 124 | 0.0 | 0.0 | 0.00 | 0.00 | 0.00 | 93 | |
| 20260504080833 | 41 | 124 | 0.0 | 0.0 | 0.00 | 0.00 | 0.00 | 93 | 327.2 |
| 20260504080322 | 41 | 124 | 0.0 | 0.0 | 0.00 | 0.00 | 0.00 | 93 | 1093.9 |
| 20260504070330 | 41 | 124 | 0.0 | 0.0 | 0.00 | 0.00 | 0.00 | 92 | |
| 20260504050331 | 44 | 123 | 0.0 | 0.0 | 0.00 | 0.00 | 0.00 | 89 | |
| 20260504045859 | 45 | 123 | 0.0 | 0.0 | 0.00 | 0.00 | 0.00 | 88 | 449.5 |
| 20260504045400 | 45 | 123 | 0.0 | 0.0 | 0.00 | 0.00 | 0.00 | 88 | |
| 20260504044821 | 45 | 123 | 0.0 | 0.0 | 0.00 | 0.00 | 0.00 | 87 | |
| 20260504044513 | 45 | 124 | 0.0 | 0.0 | 0.00 | 0.00 | 0.00 | 88 | 1016.8 |
| 20260504044327 | 45 | 124 | 0.0 | 0.0 | 0.00 | 0.00 | 0.00 | 88 | 624.5 |
| 20260504043830 | 45 | 124 | 0.0 | 0.0 | 0.00 | 0.00 | 0.00 | 87 | 1051.4 |
| 20260504043338 | 45 | 124 | 0.0 | 0.0 | 0.00 | 0.00 | 0.00 | 87 | 728.1 |
| 20260504043007 | 45 | 123 | 0.0 | 0.0 | 0.00 | 0.00 | 0.00 | 87 | 1016.8 |
| 20260504042833 | 46 | 123 | 0.0 | 0.0 | 0.00 | 0.00 | 0.00 | 87 | 285.0 |
| 20260504042343 | 46 | 123 | 0.0 | 0.0 | 0.00 | 0.00 | 0.00 | 86 | 475.7 |
| 20260504041828 | 46 | 124 | 0.0 | 0.0 | 0.00 | 0.00 | 0.00 | 86 | |
| 20260504041551 | 46 | 124 | 0.0 | 0.0 | 0.00 | 0.00 | 0.00 | 86 | 1016.8 |
| 20260504041322 | 46 | 124 | 0.0 | 0.0 | 0.00 | 0.00 | 0.00 | 86 | |
| 20260504040831 | 46 | 124 | 0.0 | 0.0 | 0.00 | 0.00 | 0.00 | 86 | |
| 20260504040318 | 47 | 123 | 0.0 | 0.0 | 0.00 | 0.00 | 0.00 | 85 | |
| 20260504040043 | 46 | 124 | 0.0 | 0.0 | 0.00 | 0.00 | 0.00 | 85 | 1016.8 |
| 20260504035826 | 47 | 124 | 0.0 | 0.0 | 0.00 | 0.00 | 0.00 | 84 | 280.7 |
| 20260504035320 | 47 | 123 | 0.0 | 0.0 | 0.00 | 0.00 | 0.00 | 85 | |
| 20260504034827 | 47 | 124 | 0.0 | 0.0 | 0.00 | 0.00 | 0.00 | 84 | |
| 20260504034535 | 47 | 124 | 0.0 | 0.0 | 0.00 | 0.00 | 0.00 | 84 | 1016.8 |
| 20260504034331 | 47 | 124 | 0.0 | 0.0 | 0.00 | 0.00 | 0.00 | 84 | |
| 20260504033846 | 47 | 124 | 0.0 | 0.0 | 0.00 | 0.00 | 0.00 | 83 | |
| 20260504033355 | 48 | 123 | 0.0 | 0.0 | 0.00 | 0.00 | 0.00 | 83 | 643.9 |
| 20260504033113 | 47 | 124 | 0.0 | 0.0 | 0.00 | 0.00 | 0.00 | 83 | 1016.8 |
| 20260504032838 | 48 | 124 | 0.0 | 0.0 | 0.00 | 0.00 | 0.00 | 83 | |
| 20260504032314 | 48 | 124 | 0.0 | 0.0 | 0.00 | 0.00 | 0.00 | 82 | |
| 20260504031827 | 48 | 123 | 0.0 | 0.0 | 0.00 | 0.00 | 0.00 | 82 | |
| 20260504031604 | 48 | 123 | 0.0 | 0.0 | 0.00 | 0.00 | 0.00 | 82 | 1016.8 |
| 20260504031327 | 48 | 124 | 0.0 | 0.0 | 0.00 | 0.00 | 0.00 | 82 | 984.9 |
| 20260504030815 | 49 | 123 | 0.0 | 0.0 | 0.00 | 0.00 | 0.00 | 82 | |
| 20260504030325 | 49 | 124 | 0.0 | 0.0 | 0.00 | 0.00 | 0.00 | 81 | |
| 20260504030050 | 49 | 123 | 0.0 | 0.0 | 0.00 | 0.00 | 0.00 | 80 | 1016.8 |
| 20260504025846 | 49 | 124 | 0.0 | 0.0 | 0.00 | 0.00 | 0.00 | 79 | |
| 20260504025331 | 49 | 123 | 0.0 | 0.0 | 0.00 | 0.00 | 0.00 | 79 | 112.5 |
| 20260504024825 | 49 | 123 | 0.0 | 0.0 | 0.00 | 0.00 | 0.00 | 78 | 635.2 |
| 20260504024535 | 49 | 123 | 0.0 | 0.0 | 0.00 | 0.00 | 0.00 | 79 | 1016.8 |
| 20260504024329 | 50 | 124 | 0.0 | 0.0 | 0.00 | 0.00 | 0.00 | 78 | 735.0 |
| 20260504023812 | 50 | 124 | 0.0 | 0.0 | 0.00 | 0.00 | 0.00 | 78 | |
| 20260504023321 | 50 | 124 | 0.0 | 0.0 | 0.00 | 0.00 | 0.00 | 78 | 349.4 |
| 20260504023016 | 50 | 124 | 0.0 | 0.0 | 0.00 | 0.00 | 0.00 | 77 | 1016.8 |
| 20260504022849 | 50 | 123 | 0.0 | 0.0 | 0.00 | 0.00 | 0.00 | 77 | 190.7 |
| 20260504022352 | 51 | 124 | 0.0 | 0.0 | 0.00 | 0.00 | 0.00 | 76 | |
| 20260504021818 | 51 | 124 | 0.0 | 0.0 | 0.00 | 0.00 | 0.00 | 76 | |
| 20260504021531 | 51 | 123 | 0.0 | 0.0 | 0.00 | 0.00 | 0.00 | 75 | 1016.8 |
| 20260504021321 | 51 | 123 | 0.0 | 0.0 | 0.00 | 0.00 | 0.00 | 75 | |
| 20260504020827 | 52 | 123 | 0.0 | 0.0 | 0.00 | 0.00 | 0.00 | 75 | 242.0 |
| 20260504020336 | 52 | 124 | 0.0 | 0.0 | 0.00 | 0.00 | 0.00 | 74 | 270.5 |
| 20260504020004 | 52 | 124 | 0.0 | 0.0 | 0.00 | 0.00 | 0.00 | 73 | 1016.8 |
| 20260504015815 | 53 | 124 | 0.0 | 0.0 | 0.00 | 0.00 | 0.00 | 72 | 544.0 |
| 20260504015318 | 53 | 124 | 0.0 | 0.0 | 0.00 | 0.00 | 0.00 | 73 | |
| 20260504014819 | 54 | 123 | 0.0 | 0.0 | 0.00 | 0.00 | 0.00 | 70 | 707.1 |
| 20260504014516 | 53 | 123 | 0.0 | 0.0 | 0.00 | 0.00 | 0.00 | 69 | 1016.8 |
| 20260504014328 | 54 | 123 | 0.0 | 0.0 | 0.00 | 0.00 | 0.00 | 69 | 1030.5 |
| 20260504013829 | 54 | 123 | 0.0 | 0.0 | 0.00 | 0.00 | 0.00 | 68 | 368.1 |
| 20260504013346 | 55 | 123 | 0.0 | 0.0 | 0.00 | 0.00 | 0.00 | 67 | 97.8 |
| 20260504013107 | 55 | 124 | 0.0 | 0.0 | 0.00 | 0.00 | 0.00 | 66 | 1016.8 |
| 20260504012821 | 56 | 124 | 0.0 | 0.0 | 0.00 | 0.00 | 0.00 | 64 | |
| 20260504012316 | 56 | 124 | 0.0 | 0.0 | 0.00 | 0.00 | 0.00 | 63 | 221.3 |
| 20260504011843 | 57 | 123 | 0.0 | 0.0 | 0.00 | 0.00 | 0.00 | 62 | 232.8 |
| 20260504011600 | 56 | 124 | 0.0 | 0.0 | 0.00 | 0.00 | 0.00 | 62 | 1016.8 |
| 20260504011316 | 57 | 123 | 0.0 | 0.0 | 0.00 | 0.00 | 0.00 | 61 | 531.8 |
| 20260504010820 | 58 | 124 | 0.0 | 0.0 | 0.00 | 0.00 | 0.00 | 57 | |
| 20260504010333 | 58 | 123 | 0.0 | 0.0 | 0.00 | 0.00 | 0.00 | 57 | 769.9 |
| 20260504010049 | 58 | 123 | 0.0 | 0.0 | 0.00 | 0.00 | 0.00 | 56 | 1016.8 |
| 20260504005837 | 59 | 124 | 0.0 | 0.0 | 0.00 | 0.00 | 0.00 | 55 | 124.6 |
| 20260504005403 | 59 | 124 | 0.0 | 0.0 | 0.00 | 0.00 | 0.00 | 54 | 338.0 |
| 20260504004817 | 59 | 124 | 0.0 | 0.0 | 0.00 | 0.00 | 0.00 | 53 | 118.6 |
| 20260504004538 | 59 | 124 | 0.0 | 0.0 | 0.00 | 0.00 | 0.00 | 52 | 1016.8 |
| 20260504004326 | 60 | 123 | 0.0 | 0.0 | 0.00 | 0.00 | 0.00 | 52 | 185.3 |
| 20260504003836 | 61 | 124 | 0.0 | 0.0 | 0.00 | 0.00 | 0.00 | 50 | |
| 20260504003320 | 61 | 124 | 0.0 | 0.0 | 0.00 | 0.00 | 0.00 | 49 | |
| 20260504003025 | 61 | 124 | 0.0 | 0.0 | 0.00 | 0.00 | 0.00 | 48 | 1066.0 |
| 20260504002824 | 62 | 124 | 0.0 | 0.0 | 0.00 | 0.00 | 0.00 | 48 | |
| 20260504002325 | 62 | 123 | 0.0 | 0.0 | 0.00 | 0.00 | 0.00 | 46 | 23.1 |
| 20260504001823 | 63 | 124 | 0.0 | 0.0 | 0.00 | 0.00 | 0.00 | 45 | 1026.0 |
| 20260504001513 | 63 | 123 | 0.0 | 0.0 | 0.00 | 0.00 | 0.00 | 44 | 1066.0 |
| 20260504001329 | 64 | 123 | 0.0 | 0.0 | 0.00 | 0.00 | 0.00 | 44 | 948.4 |
| 20260504000837 | 64 | 123 | 0.0 | 0.0 | 0.00 | 0.00 | 0.00 | 43 | |
| 20260504000346 | 65 | 122 | 0.0 | 0.0 | 0.00 | 0.00 | 0.00 | 43 | 825.6 |
| 20260504000106 | 64 | 123 | 0.0 | 0.0 | 0.00 | 0.00 | 0.00 | 42 | 1066.0 |
| 20260503235819 | 65 | 123 | 0.0 | 0.0 | 0.00 | 0.00 | 0.00 | 42 | |
| 20260503235325 | 65 | 122 | 0.0 | 2.6 | 0.00 | 0.00 | 0.00 | 41 | |
| 20260503234841 | 66 | 122 | 0.0 | 3.5 | 0.00 | 0.00 | 0.00 | 40 | |
| 20260503234550 | 65 | 122 | 0.0 | 3.5 | 0.00 | 0.00 | 0.00 | 39 | 1066.0 |
| 20260503234345 | 66 | 123 | 0.0 | 1.7 | 0.00 | 0.00 | 0.00 | 39 | 210.1 |
| 20260503233820 | 67 | 123 | 0.0 | 1.7 | 0.00 | 0.00 | 0.00 | 39 | |
| 20260503233323 | 67 | 124 | 0.0 | 4.3 | 0.00 | 0.00 | 0.00 | 38 | 190.7 |
| 20260503233024 | 67 | 124 | 0.0 | 4.3 | 0.00 | 0.00 | 0.00 | 37 | 1066.0 |
| 20260503232833 | 67 | 123 | 0.0 | 4.3 | 0.00 | 0.00 | 0.00 | 36 | 150.6 |
| 20260503232344 | 68 | 144 | 0.9 | 4.3 | 0.00 | 0.00 | 0.00 | 36 | -108.7 |